When you browse on this site, cookies collect data to enhance your experience and personalize the content and advertising you see.
Visit our Privacy Policy to learn more. By continuing to use the site, you agree to this use of cookies and data.
  • In Hungary
  • List of Countries
  • For 7 days
  • Water Temperature
  • Weather Map
  • News
  • Weather Widgets
  • user-avatar
    Login

    Hourly Weather Alfter

    Today, 28 May, Thursday

    Time Temperature Precipitation Wind Pressure Humidity
    00:00 +13°C° 0 mm 3 mps 765 mmHg 83%
    01:00 +12°C° 0 mm 3 mps 765 mmHg 83%
    02:00 +10°C° 0 mm 3 mps 765 mmHg 83%
    03:00 +9°C° 0 mm 2 mps 765 mmHg 83%
    04:00 +10°C° 0 mm 3 mps 766 mmHg 80%
    05:00 +11°C° 0 mm 3 mps 766 mmHg 78%
    06:00 +11°C° 0 mm 3 mps 766 mmHg 75%
    07:00 +13°C° 0 mm 3 mps 766 mmHg 66%
    08:00 +14°C° 0 mm 3 mps 766 mmHg 56%
    09:00 +17°C° 0 mm 3 mps 766 mmHg 46%
    10:00 +18°C° 0 mm 4 mps 766 mmHg 43%
    11:00 +19°C° 0 mm 4 mps 765 mmHg 40%
    12:00 +20°C° 0 mm 4 mps 765 mmHg 37%
    13:00 +20°C° 0 mm 4 mps 765 mmHg 37%
    14:00 +20°C° 0 mm 4 mps 764 mmHg 38%
    15:00 +20°C° 0 mm 4 mps 764 mmHg 38%
    16:00 +19°C° 0 mm 4 mps 764 mmHg 43%
    17:00 +18°C° 0 mm 4 mps 763 mmHg 49%
    18:00 +17°C° 0 mm 4 mps 763 mmHg 54%
    19:00 +16°C° 0 mm 3 mps 764 mmHg 59%
    20:00 +13°C° 0 mm 3 mps 764 mmHg 65%
    21:00 +12°C° 0 mm 2 mps 764 mmHg 70%
    22:00 +10°C° 0 mm 2 mps 764 mmHg 74%
    23:00 +9°C° 0 mm 2 mps 764 mmHg 79%

    Tomorrow, 29 May, Friday

    Time Temperature Precipitation Wind Pressure Humidity
    00:00 +9°C° 0 mm 1 mps 764 mmHg 84%
    01:00 +9°C° 0 mm 1 mps 764 mmHg 85%
    02:00 +9°C° 0 mm 1 mps 764 mmHg 87%
    03:00 +7°C° 0 mm 0 mps 764 mmHg 88%
    04:00 +9°C° 0 mm 0 mps 764 mmHg 83%
    05:00 +10°C° 0 mm 0 mps 763 mmHg 78%
    06:00 +13°C° 0 mm 1 mps 763 mmHg 73%
    07:00 +14°C° 0 mm 1 mps 763 mmHg 64%
    08:00 +16°C° 0 mm 2 mps 763 mmHg 55%
    09:00 +18°C° 0 mm 2 mps 763 mmHg 46%
    10:00 +19°C° 0 mm 2 mps 762 mmHg 42%
    11:00 +21°C° 0 mm 2 mps 762 mmHg 38%
    12:00 +23°C° 0 mm 2 mps 761 mmHg 33%
    13:00 +22°C° 0 mm 3 mps 761 mmHg 34%
    14:00 +22°C° 0 mm 3 mps 761 mmHg 35%
    15:00 +22°C° 0 mm 3 mps 760 mmHg 36%
    16:00 +21°C° 0 mm 3 mps 760 mmHg 42%
    17:00 +20°C° 0 mm 3 mps 760 mmHg 47%
    18:00 +19°C° 0 mm 3 mps 759 mmHg 53%
    19:00 +17°C° 0 mm 3 mps 760 mmHg 55%
    20:00 +16°C° 0 mm 3 mps 760 mmHg 58%
    21:00 +13°C° 0 mm 3 mps 760 mmHg 60%
    22:00 +12°C° 0 mm 3 mps 760 mmHg 64%
    23:00 +12°C° 0 mm 2 mps 760 mmHg 68%

    Day after tomorrow, 30 May, Saturday

    Time Temperature Precipitation Wind Pressure Humidity
    00:00 +10°C° 0 mm 2 mps 760 mmHg 72%
    01:00 +9°C° 0 mm 2 mps 760 mmHg 74%
    02:00 +9°C° 0 mm 2 mps 760 mmHg 77%
    03:00 +9°C° 0 mm 1 mps 760 mmHg 80%
    04:00 +11°C° 0 mm 1 mps 760 mmHg 75%
    05:00 +12°C° 0 mm 2 mps 760 mmHg 70%
    06:00 +14°C° 0 mm 2 mps 760 mmHg 64%
    07:00 +15°C° 0 mm 2 mps 760 mmHg 58%
    08:00 +17°C° 0 mm 3 mps 760 mmHg 51%
    09:00 +19°C° 0 mm 3 mps 760 mmHg 45%
    10:00 +19°C° 0 mm 3 mps 760 mmHg 44%
    11:00 +20°C° 0 mm 3 mps 759 mmHg 42%
    12:00 +20°C° 0 mm 3 mps 759 mmHg 41%
    13:00 +21°C° 0 mm 3 mps 759 mmHg 41%
    14:00 +21°C° 0 mm 3 mps 759 mmHg 42%
    15:00 +21°C° 0 mm 3 mps 758 mmHg 43%
    16:00 +20°C° 0 mm 3 mps 758 mmHg 48%
    17:00 +19°C° 0 mm 2 mps 758 mmHg 53%
    18:00 +18°C° 0 mm 2 mps 758 mmHg 58%
    19:00 +17°C° 0 mm 2 mps 758 mmHg 61%
    20:00 +16°C° 0 mm 2 mps 759 mmHg 65%
    21:00 +15°C° 0 mm 2 mps 759 mmHg 69%
    22:00 +14°C° 0 mm 1 mps 759 mmHg 72%
    23:00 +13°C° 0 mm 1 mps 759 mmHg 75%

    31 May, Sunday

    Time Temperature Precipitation Wind Pressure Humidity
    00:00 +12°C° 0 mm 1 mps 759 mmHg 79%
    01:00 +12°C° 0 mm 1 mps 759 mmHg 80%
    02:00 +11°C° 0 mm 1 mps 759 mmHg 82%
    03:00 +9°C° 0 mm 0 mps 759 mmHg 84%
    04:00 +12°C° 0 mm 1 mps 759 mmHg 80%
    05:00 +13°C° 0 mm 1 mps 759 mmHg 76%
    06:00 +14°C° 0 mm 1 mps 759 mmHg 72%
    07:00 +16°C° 0 mm 1 mps 759 mmHg 65%
    08:00 +17°C° 0 mm 2 mps 759 mmHg 59%
    09:00 +19°C° 0 mm 2 mps 759 mmHg 52%
    10:00 +20°C° 0 mm 2 mps 758 mmHg 47%
    11:00 +21°C° 0 mm 2 mps 758 mmHg 42%
    12:00 +23°C° 0 mm 2 mps 758 mmHg 36%
    13:00 +23°C° 0 mm 2 mps 758 mmHg 37%
    14:00 +24°C° 0 mm 3 mps 757 mmHg 37%
    15:00 +24°C° 0 mm 3 mps 757 mmHg 38%
    16:00 +22°C° 0 mm 3 mps 757 mmHg 45%
    17:00 +21°C° 0 mm 3 mps 757 mmHg 52%
    18:00 +20°C° 0 mm 2 mps 757 mmHg 59%
    19:00 +19°C° 0 mm 2 mps 758 mmHg 64%
    20:00 +17°C° 0 mm 2 mps 758 mmHg 69%
    21:00 +15°C° 0 mm 2 mps 758 mmHg 75%
    22:00 +14°C° 0 mm 2 mps 758 mmHg 77%
    23:00 +13°C° 0 mm 1 mps 758 mmHg 79%

    1 June, Monday

    Time Temperature Precipitation Wind Pressure Humidity
    00:00 +13°C° 0 mm 1 mps 758 mmHg 82%
    01:00 +12°C° 0 mm 1 mps 758 mmHg 83%
    02:00 +11°C° 0 mm 0 mps 758 mmHg 84%
    03:00 +11°C° 0 mm 0 mps 758 mmHg 85%
    04:00 +12°C° 0 mm 0 mps 758 mmHg 80%
    05:00 +13°C° 0 mm 0 mps 758 mmHg 76%
    06:00 +15°C° 0 mm 0 mps 758 mmHg 71%
    07:00 +19°C° 0 mm 1 mps 757 mmHg 64%
    08:00 +20°C° 0 mm 1 mps 757 mmHg 57%
    09:00 +21°C° 0 mm 2 mps 757 mmHg 49%
    10:00 +23°C° 0 mm 2 mps 757 mmHg 46%
    11:00 +25°C° 0 mm 2 mps 756 mmHg 42%
    12:00 +26°C° 0 mm 2 mps 756 mmHg 38%
    13:00 +26°C° 0 mm 2 mps 756 mmHg 38%
    14:00 +27°C° 0 mm 2 mps 755 mmHg 38%
    15:00 +27°C° 0 mm 2 mps 755 mmHg 38%
    16:00 +26°C° 0 mm 2 mps 755 mmHg 45%
    17:00 +25°C° 0 mm 2 mps 754 mmHg 51%
    18:00 +24°C° 0 mm 2 mps 754 mmHg 58%
    19:00 +21°C° 0 mm 2 mps 754 mmHg 63%
    20:00 +19°C° 0 mm 2 mps 754 mmHg 69%
    21:00 +17°C° 0 mm 2 mps 755 mmHg 75%
    22:00 +17°C° 0 mm 2 mps 754 mmHg 78%
    23:00 +16°C° 0 mm 2 mps 754 mmHg 80%

    2 June, Tuesday

    Time Temperature Precipitation Wind Pressure Humidity
    00:00 +15°C° 0 mm 2 mps 754 mmHg 83%
    01:00 +15°C° 0 mm 2 mps 754 mmHg 85%
    02:00 +14°C° 0 mm 1 mps 753 mmHg 87%
    03:00 +14°C° 0 mm 1 mps 753 mmHg 89%
    04:00 +15°C° 0 mm 1 mps 753 mmHg 85%
    05:00 +16°C° 0 mm 1 mps 753 mmHg 81%
    06:00 +19°C° 0 mm 1 mps 753 mmHg 77%
    07:00 +19°C° 0 mm 2 mps 752 mmHg 70%
    08:00 +21°C° 0 mm 2 mps 752 mmHg 62%
    09:00 +24°C° 0 mm 3 mps 752 mmHg 55%
    10:00 +25°C° 0 mm 3 mps 751 mmHg 51%
    11:00 +26°C° 0 mm 3 mps 751 mmHg 47%
    12:00 +27°C° 0 mm 3 mps 750 mmHg 43%
    13:00 +27°C° 0 mm 3 mps 750 mmHg 44%
    14:00 +27°C° 0 mm 3 mps 749 mmHg 44%
    15:00 +27°C° 0 mm 3 mps 749 mmHg 44%
    16:00 +27°C° 0 mm 3 mps 748 mmHg 48%
    17:00 +26°C° 0 mm 2 mps 748 mmHg 53%
    18:00 +25°C° 0 mm 2 mps 748 mmHg 57%
    19:00 +23°C° 0 mm 2 mps 748 mmHg 59%
    20:00 +20°C° 0 mm 2 mps 748 mmHg 62%
    21:00 +19°C° 0 mm 2 mps 748 mmHg 65%
    22:00 +18°C° 0 mm 2 mps 747 mmHg 68%
    23:00 +17°C° 0 mm 2 mps 747 mmHg 72%
    Show more